Regional Weather Roundup
Issued by NWS

Home | Current Version | Previous Version | Graphics & Text | Print | Product List | Glossary On
Versions: 1 2 3 4 5 6 7 8 9 10 11 12 13 14 15 16 17 18 19 20 21 22 23 24 25 26 27 28 29 30 31 32 33 34 35 36 37 38 39 40 41 42 43 44 45 46 47 48 49 50
000
ASUS43 KTOP 280308
RWRKS

WEATHER ROUNDUP FOR KANSAS
NATIONAL WEATHER SERVICE GOODLAND KS
1000 PM CDT MON JUL 27 2015

NOTE:  "FAIR" INDICATES FEW OR NO CLOUDS BELOW 12,000 FEET WITH NO
SIGNIFICANT WEATHER AND/OR OBSTRUCTIONS TO VISIBILITY.

KSZ001>006-013>018-027>032-041>047-280400-
NORTHWEST KANSAS

CITY           SKY/WX    TMP DP  RH WIND       PRES   REMARKS
GOODLAND       CLEAR     82  68  62 S16       29.78R
HAYS           CLEAR     84  66  54 SE14      29.79S
HILL CITY      CLEAR     86  69  56 SE13      29.76R
RUSSELL        CLEAR     84  68  58 S16       29.78S
$$

KSZ061>065-074>080-084>089-280400-
SOUTHWEST KANSAS

CITY           SKY/WX    TMP DP  RH WIND       PRES   REMARKS
DODGE CITY     PTCLDY    84  66  54 S18       29.84R
ELKHART          N/A     83  62  49 S14         N/A
GARDEN CITY    CLEAR     81  68  64 S12       29.81R
GREAT BEND     CLEAR     86  68  54 S22       29.80S
LIBERAL        CLEAR     88  63  42 S14       29.85R
PRATT          CLEAR     86  68  54 S15G23    29.86R
$$

KSZ066>073-081>083-090>101-280400-
SOUTHEAST KANSAS

CITY           SKY/WX    TMP DP  RH WIND       PRES   REMARKS
CHANUTE        CLEAR     82  74  76 SE8       29.90R
COFFEYVILLE    CLEAR     84  77  79 S6        29.89R
HUTCHINSON     CLEAR     87  65  47 SE16      29.85R
MEDICINE LODGE   N/A     87  71  58 SE9       29.84R
NEWTON         CLEAR     84  66  54 S15       29.89R
PARSONS        CLEAR     82  76  81 SE3       29.91R
WICHITA INTL   PTCLDY    85  69  58 S14       29.85R
WICHITA JABRA  CLEAR     85  72  65 SE13      29.86R
WICHITA MCCONL CLEAR     85  71  62 SE12      29.86R
WINFIELD       CLEAR     83  75  77 SE10      29.88R
$$

KSZ007>012-019>026-033>040-048>060-102>105-280400-
NORTHEAST KANSAS

CITY           SKY/WX    TMP DP  RH WIND       PRES   REMARKS
CONCORDIA      CLEAR     82  65  56 SE13      29.81S
EMPORIA        CLEAR     83  71  67 S10       29.88R
LAWRENCE       CLEAR     81  74  79 SE7       29.88R
MANHATTAN      CLEAR     82  71  69 S3        29.84R
MARYSVILLE     CLEAR     81  73  78 SE7       29.84R
OLATHE IND     CLEAR     83  74  74 S7        29.91R
OLATHE EXE     CLEAR     82  74  76 SE7       29.90R
SALINA         CLEAR     86  67  52 SE12      29.81R
TOPEKA BILLARD CLEAR     83  73  72 SE8       29.87R
TOPEKA FORBES  CLEAR     84  72  67 SE8       29.88R
$$



USA.gov is the U.S. government's official web portal to all federal, state and local government web resources and services.